Location: Kaarina
(60.4167°N, 22.4167°E)
Time: 08:08:22
(UTC+02:00)

Daily predictions for brighter satellites

Satellite Brightness Start Highest point End
(mag) Time Altitude Azimuth Time Altitude Azimuth Time Altitude Azimuth
Cosmos 1437 Rocket 4.2 18:23:43 10° SE 18:26:38 19° E 18:29:35 10° NE
Cosmos 1607 4.3 18:20:55 10° W 18:27:23 67° NNW 18:33:54 10° ENE
Meteor 1-28 Rocket 3.2 18:23:57 10° NNE 18:27:43 86° WNW 18:31:26 10° SSW
Cosmos 2297 Rocket 2.5 18:23:00 10° S 18:28:23 48° ESE 18:33:50 10° NE
Cosmos 1464 Rocket 4.0 18:23:07 10° NNW 18:29:18 76° ENE 18:35:26 10° SSE
Aureole 3 3.9 18:27:17 10° SSE 18:31:44 41° E 18:35:20 10° NNE
SL-16 R/B 4.5 18:27:38 10° NNE 18:32:30 25° NW 18:37:22 10° W
Cosmos 1603 3.8 18:27:02 10° NW 18:32:46 85° SW 18:38:25 10° SE
Envisat 3.4 18:31:18 10° SE 18:36:03 42° ENE 18:40:50 10° N
Cosmos 1833 Rocket 4.0 18:32:02 10° WNW 18:36:56 28° N 18:41:48 10° ENE
Resurs 01 Rocket 2.6 18:33:35 10° ESE 18:37:23 29° NE 18:41:12 10° N
ATLAS 3B R/B 2.8 18:30:43 10° SW 18:37:47 73° SE 18:44:35 10° ENE
Okean 3 3.8 18:35:30 10° NNW 18:39:41 70° W 18:43:50 10° S
Cosmos 1184 Rocket 3.5 18:37:19 10° N 18:40:22 33° ENE 18:43:23 10° SE
Cosmos 1110 Rocket 4.0 18:35:05 10° NNW 18:40:25 83° ENE 18:45:44 10° SE
Cosmos 1825 4.4 18:37:10 10° WSW 18:40:28 28° WNW 18:43:47 10° N
MOS 1-B Rocket 4.3 18:37:15 10° S 18:43:05 67° WSW 18:48:41 10° NNW
COSMOS 2455 4.5 18:42:07 10° ESE 18:44:25 12° E 18:46:43 10° ENE
Cosmos 1782 Rocket 4.4 18:41:05 10° SSE 18:44:52 28° E 18:48:39 10° NNE
COSMO-SKYMED 1 2.6 18:40:58 10° NNE 18:45:17 58° ESE 18:49:35 10° S
Cosmos 405 2.9 18:44:06 10° S 18:47:36 68° ESE 18:51:09 10° NNE
NOSS 3-2 (A) 3.7 18:41:54 10° SW 18:48:00 61° SE 18:54:56 10° ENE
Meteor 1-13 Rocket 4.2 18:43:51 10° NNW 18:49:23 59° ENE 18:54:50 10° SSE
ERS-2 2.1 18:47:04 10° SSE 18:50:45 75° ENE 18:54:27 10° NNW
Meteor 1-20 Rocket 4.4 18:48:18 10° S 18:53:54 53° E 18:59:35 10° NNE
Cosmos 2263 Rocket 3.8 18:52:05 10° ESE 18:54:03 12° E 18:54:55 12° E
Iridium 4 Rocket 3.2 18:50:33 10° N 18:55:36 74° E 19:00:10 10° SSE
Cosmos 921 Rocket 4.1 18:53:55 10° NW 18:58:19 50° WSW 19:02:40 10° S
USA 32 4.2 18:54:55 10° SSE 18:59:56 49° E 19:04:59 10° NNE
Cosmos 2082 3.7 18:54:58 10° SSW 19:00:32 65° ESE 19:06:11 10° NE
Sich 1 Rocket 3.8 18:58:41 10° SSE 19:02:58 46° E 19:07:13 10° NNE
Cosmos 2084 Rocket 3.4 18:59:25 10° SW 19:03:37 63° SSE 19:07:05 13° ENE
H-2A R/B 3.1 19:00:28 10° S 19:04:22 70° WSW 19:08:15 10° NNW
CZ-2C R/B 3.7 19:00:12 10° NNE 19:04:43 90° WNW 19:09:09 10° SSW
Cosmos 1939 Rocket 3.5 19:01:06 10° SE 19:04:53 36° ENE 19:08:38 10° N
Cosmos 158 Rocket 4.0 19:02:21 10° S 19:07:04 52° ESE 19:11:51 10° NE
Cosmos 2034 Rocket 4.2 19:00:53 10° NNW 19:07:19 85° W 19:13:42 10° S
USA 238 DEB 3.8 19:00:21 10° WSW 19:07:19 86° SSE 19:14:23 10° ENE
USA 238 3.8 19:00:27 10° WSW 19:07:25 86° SSE 19:14:29 10° ENE
ARGOS 4.3 19:04:31 13° E 19:08:10 26° NE 19:12:33 10° N
GEOS 3 Rocket 4.2 19:03:31 11° ENE 19:08:38 56° N 19:13:55 10° W
Cosmos 2285 Rocket 4.2 19:02:17 10° SW 19:08:42 82° NW 19:15:11 10° NNE
Cosmos 1331 Rocket 4.3 19:04:23 10° NW 19:09:42 75° WSW 19:15:00 10° SSE
Meteor 1-14 Rocket 4.3 19:04:09 10° S 19:10:01 74° ESE 19:16:01 10° NNE
HJ-1C 3.3 19:08:49 10° SSE 19:12:15 84° ENE 19:15:41 10° NNW
Okean 2 Rocket 3.7 19:09:11 10° SSE 19:13:08 33° E 19:17:06 10° NNE
ALOS 4.0 19:11:02 10° SSW 19:15:22 36° W 19:19:43 10° NNW
Meteor 2-4 Rocket 3.7 19:10:07 10° NNW 19:16:01 74° ENE 19:21:43 10° SSE
Cosmos 1634 Rocket 4.0 19:10:55 10° N 19:17:03 61° ENE 19:23:10 10° SSE
FREGAT/IRIS 3.1 19:14:08 10° S 19:17:06 62° WSW 19:20:05 10° NNW
ERS-1 Rocket 4.2 19:15:45 16° E 19:18:21 24° NE 19:22:21 10° N
SJ-6B 2.8 19:16:43 10° SSE 19:20:35 90° N 19:24:34 10° NNW
Cosmos 1908 Rocket 3.5 19:19:43 10° S 19:24:12 81° ESE 19:28:41 10° NNE
Spot 2 Rocket 3.6 19:20:36 10° SE 19:25:32 55° ENE 19:30:32 10° NNW
Okean 1 4.5 19:22:56 10° NNW 19:26:48 46° W 19:30:37 10° SSW
H-2A R/B 3.2 19:24:11 18° E 19:26:57 27° NE 19:31:28 10° N
Cosmos 2082 Rocket 3.4 19:22:05 10° NW 19:27:03 30° NNE 19:30:52 15° ENE
Cosmos 1733 Rocket 3.9 19:22:53 10° SSW 19:27:08 53° WNW 19:31:25 10° N
Helios 1A 4.5 19:26:03 18° ENE 19:27:11 20° NE 19:30:14 10° N
ARGOS Delta rocket 4.3 19:22:46 10° NNE 19:27:25 39° E 19:31:48 10° SSE
Meteor 1-19 Rocket 4.4 19:22:03 10° NNW 19:27:36 76° WSW 19:33:08 10° S
Meteor 1-4 Rocket 3.2 19:25:21 10° SSE 19:28:34 32° E 19:31:51 10° NNE
CZ-2D R/B 3.3 19:26:09 10° SSE 19:30:04 87° WSW 19:34:00 10° NNW
Meteor 1-25 Rocket 4.2 19:25:13 10° SSW 19:30:48 88° ESE 19:36:29 10° NNE
Cosmos 1048 Rocket 4.1 19:26:14 10° SSW 19:31:24 57° ESE 19:36:33 10° NE
Cosmos 1174 3.7 19:27:19 10° NW 19:31:44 71° NNE 19:33:45 25° ESE
ATLAS CENTAUR R/B 2.7 19:28:56 10° WNW 19:32:43 38° SW 19:36:43 10° SSE
SKYMED 2 4.1 19:29:03 10° NNE 19:33:23 64° WNW 19:37:40 10° SSW
Cosmos 1943 3.8 19:30:51 10° NW 19:36:25 60° WSW 19:41:59 10° SSE
Cosmos 1602 3.7 19:32:44 10° S 19:36:33 57° E 19:40:23 10° NNE
USA 186 1.7 19:33:20 10° SSE 19:36:39 71° ENE 19:39:59 10° NNW
DNEPR-1 R/B 3.6 19:32:32 10° SW 19:36:51 79° SE 19:40:35 17° ENE
Cosmos 1975 Rocket 4.0 19:36:12 10° NNW 19:40:32 51° W 19:44:51 10° S
NOAA 11 4.3 19:36:27 14° SE 19:41:01 52° ENE 19:46:19 10° NNW
Cosmos 1302 Rocket 4.2 19:36:33 10° NW 19:41:46 72° WSW 19:46:57 10° SSE
EO 1 Del DPAF 3.2 19:38:16 10° NNE 19:42:08 89° WNW 19:45:59 10° SSW
Landsat 4 3.8 19:38:45 10° NNE 19:42:31 77° WNW 19:46:17 10° SSW
Cosmos 2251 Rocket 4.4 19:38:53 10° SSE 19:43:06 25° E 19:47:19 10° NE
NOSS 3-2 (C) 3.6 19:37:31 10° SW 19:43:49 78° SSE 19:50:01 14° ENE
COSMOS 2406 3.4 19:41:31 10° NW 19:47:08 56° NE 19:50:22 25° ESE
YAOGAN 6 2.4 19:45:28 16° SSE 19:48:19 71° ENE 19:51:55 10° NNW
Meteor 1-11 Rocket 3.9 19:42:57 10° S 19:48:25 51° E 19:54:01 10° NNE
SeaSat 1 3.2 19:44:24 10° SSE 19:49:15 54° WSW 19:54:08 10° NW
Resurs 1-3 3.5 19:48:13 10° SSE 19:52:38 89° ENE 19:57:04 10° NNW
Terra 3.5 19:53:37 17° NE 19:54:23 18° NE 19:57:30 10° N
Cosmos 1633 3.7 19:51:50 10° SW 19:55:17 45° WNW 19:58:48 10° N
CENTAUR R/B 2.7 19:49:18 10° SW 19:55:37 60° SE 20:01:44 15° ENE
CZ-4C R/B 3.6 19:49:49 10° WNW 19:56:17 50° SW 20:03:38 10° SSE
USA 267 3.7 19:54:31 20° SE 19:59:08 56° SSW 20:05:35 10° W
Cosmos 2227 Rocket 2.7 19:53:33 10° WSW 19:59:10 62° NW 20:04:49 10° NE
Cosmos 1437 Rocket 3.0 19:58:20 10° SSW 20:02:27 79° WNW 20:06:37 10° NNE
Cosmos 1300 Rocket 4.0 20:04:04 37° E 20:04:12 37° E 20:08:13 10° NNE
Cosmos 2219 4.4 19:59:44 10° W 20:05:04 41° NNW 20:10:28 10° NE
Cosmos 1340 Rocket 3.0 20:01:23 10° N 20:05:20 51° ENE 20:06:11 42° ESE
Cosmos 1536 2.9 20:04:54 10° S 20:08:52 53° E 20:12:53 10° NNE
CSL-04 DEB 4.2 20:08:19 31° SSE 20:10:08 80° ENE 20:14:06 10° NNW
Cosmos 2180 Rocket 4.4 20:04:42 10° NNW 20:10:55 71° ENE 20:16:03 16° SSE
Cosmos 1536 Rocket 3.8 20:06:43 10° NNW 20:11:08 69° W 20:15:30 10° S
Alouette 2 Rocket 3.4 20:07:58 10° S 20:11:34 58° ESE 20:16:15 10° NNE
Meteor 1-23 Rocket 4.5 20:06:17 10° NNW 20:12:07 75° WSW 20:17:57 10° S
Cosmos 2297 Rocket 2.7 20:06:50 10° WSW 20:12:27 59° NW 20:18:05 10° NE
MetOp-A 4.3 20:10:29 31° ESE 20:12:49 54° ENE 20:18:03 10° NNW
Okean 2 3.3 20:08:48 10° NNW 20:12:58 71° ENE 20:14:30 37° SSE
Cosmos 1515 3.6 20:09:21 10° NNW 20:13:11 86° WSW 20:15:07 28° S
Resurs 01 Rocket 2.0 20:09:13 10° S 20:13:37 66° WSW 20:18:04 10° NNW
Okean 1-7 Rocket 3.7 20:10:12 10° N 20:14:32 51° ENE 20:15:24 44° ESE
Envisat 3.9 20:10:08 10° S 20:15:04 50° W 20:20:03 10° NNW
Cosmos 1607 4.3 20:08:57 10° WNW 20:15:24 60° N 20:18:52 28° ENE
Tsikada Rocket 4.1 20:10:50 10° SSW 20:17:16 82° WNW 20:23:43 10° NNE
Cosmos 1025 Rocket 2.9 20:13:47 10° NNW 20:18:12 74° ENE 20:19:49 38° SSE
Cosmos 1833 Rocket 3.5 20:16:55 10° NW 20:22:16 39° NNE 20:24:13 30° ENE
Cosmos 1782 Rocket 4.3 20:18:12 10° SSW 20:22:33 55° WNW 20:26:54 10° N
Cosmos 494 Rocket 3.9 20:17:31 10° SSW 20:22:38 60° ESE 20:27:43 10° NE
SPOT 5 3.6 20:25:28 38° E 20:26:26 41° ENE 20:31:26 10° N
Thor Agena Rocket 3.4 20:22:00 10° NNE 20:27:10 82° ESE 20:32:15 10° SSW
CZ-4B DEB 4.4 20:27:48 73° SSE 20:28:07 89° WSW 20:31:38 10° NNW
SL-24 DEB 4.1 20:23:50 10° N 20:28:29 77° E 20:32:00 17° S
ATLAS 3B R/B 2.9 20:21:43 10° W 20:28:44 70° NNW 20:32:47 26° ENE
COSMOS 2455 3.1 20:23:16 10° SSW 20:28:55 43° ESE 20:30:19 37° E
SL-24 R/B 4.4 20:33:27 43° SSE 20:34:47 84° WSW 20:38:59 10° NNW
Cosmos 2263 Rocket 2.3 20:31:22 10° S 20:36:39 46° ESE 20:36:51 46° ESE
Cosmos 1269 Rocket 4.2 20:31:52 10° SW 20:37:10 75° NW 20:42:30 10° NNE
NOSS 3-2 (A) 3.8 20:32:25 10° WSW 20:38:54 76° NNW 20:43:11 27° ENE
Cosmos 1939 Rocket 4.1 20:35:57 10° S 20:39:48 42° W 20:43:43 10° NNW
Cosmos 2279 Rocket 4.2 20:33:50 10° NNW 20:40:04 73° W 20:46:18 10° S
Cosmos 2084 Rocket 3.5 20:39:01 10° W 20:43:10 66° N 20:43:38 59° NNE
SL-27 R/B 4.4 20:42:06 10° NNW 20:44:08 21° NNE 20:44:08 21° NNE
GEOS 3 Rocket 4.0 20:44:37 41° ENE 20:46:21 60° NNE 20:51:41 10° WNW
Cosmos 332 Rocket 4.3 20:41:57 10° NNW 20:46:36 42° NE 20:46:50 42° NE
ARGOS 3.0 20:46:02 44° SSE 20:47:50 82° ENE 20:53:17 10° NNW
Cosmos 1992 Rocket 4.4 20:43:02 10° NW 20:48:13 60° WSW 20:50:34 31° S
SPOT 1/Viking Rocket 3.7 20:50:46 51° ENE 20:51:05 52° ENE 20:56:06 10° NNW
Okean 2 Rocket 4.0 20:46:48 10° SW 20:51:06 48° WNW 20:55:27 10° N
ERS-1 Rocket 2.8 20:55:44 62° SE 20:56:34 81° ENE 21:01:40 10° NNW
USA 238 DEB 3.9 20:51:42 10° W 20:58:42 70° N 21:01:49 36° ENE
USA 238 3.9 20:51:48 10° W 20:58:47 70° N 21:01:55 36° ENE
Cosmos 2151 Rocket 4.0 20:56:22 10° SSW 21:00:48 64° WNW 21:05:14 10° N
Helios 1A 3.1 21:02:41 69° N 21:02:41 69° N 21:06:28 10° NNW
USA 215 4.3 21:05:23 27° S 21:05:23 27° S 21:08:59 10° SSW
SL-08 RB Rocket 3.6 21:03:17 82° ESE 21:03:27 85° ENE 21:08:10 10° NNW
Meteor 1-4 Rocket 4.0 21:00:17 10° SW 21:03:38 37° WNW 21:07:06 10° N
H-2A R/B 2.0 21:04:48 61° SSE 21:05:49 86° ENE 21:11:20 10° NNW
Cosmos 2227 4.3 21:02:22 10° SW 21:08:06 78° NW 21:13:49 10° NE
Cosmos 1356 Rocket 4.1 21:04:47 10° NNW 21:07:54 48° N 21:07:54 48° N
MetOp-B 4.2 21:08:57 52° S 21:10:19 78° WSW 21:15:43 10° NNW
Cosmos 2082 Rocket 2.4 21:06:42 10° NW 21:12:15 55° NE 21:12:43 53° ENE
Cosmos 1892 Rocket 3.7 21:10:00 10° NNW 21:14:05 73° NNW 21:14:05 73° NNW
Meteor 1-21 4.1 21:08:43 10° NNW 21:14:36 81° ENE 21:15:21 68° SE
Cosmos 371 Rocket 3.6 21:10:03 10° NNW 21:14:30 54° NNE 21:14:30 54° NNE
Landsat 7 4.2 21:15:51 51° NNE 21:15:51 51° NNE 21:19:49 10° NNW
Meteor 2-11 Rocket 4.3 21:11:13 10° NNW 21:17:24 89° ENE 21:18:44 58° SSE
Meteor 2-20 Rocket 4.3 21:21:21 54° S 21:22:52 80° E 21:29:05 10° NNE
ASTEX 1 3.5 21:18:15 10° N 21:22:42 69° NNE 21:22:42 69° NNE
DNEPR-1 R/B 4.3 21:20:03 10° W 21:24:28 55° N 21:24:56 53° NNE
Okean 1 Rocket 4.3 21:26:20 34° N 21:26:20 34° N 21:28:52 10° NNE
Cosmos 2251 Rocket 3.4 21:19:36 10° SSW 21:24:51 86° WNW 21:30:10 10° NNE
Nadezhda 4 Rocket 3.9 21:26:27 69° SE 21:26:58 72° E 21:33:18 10° NNE
Terra 2.6 21:32:30 44° NNE 21:32:30 44° NNE 21:36:02 10° NNW
COSMOS 2406 3.7 21:26:00 10° NW 21:31:31 52° WSW 21:32:27 47° SSW
Timation 2 Rocket 4.4 21:27:49 10° NW 21:33:44 46° NNE 21:34:26 44° NE
Cosmos 1932 4.5 21:28:04 10° WNW 21:34:30 69° NNE 21:35:16 63° ENE
NOSS 3-2 (C) 3.8 21:28:29 10° W 21:35:03 71° N 21:37:28 44° ENE
CZ-2C R/B 3.9 21:36:51 42° NE 21:36:51 42° NE 21:41:23 10° N
Cosmos 1092 Rocket 4.1 21:37:56 58° ENE 21:37:56 58° ENE 21:43:18 10° NNE
USA 267 4.3 21:41:51 28° SSW 21:43:08 30° SW 21:48:49 10° W
Cosmos 2227 Rocket 3.7 21:39:11 10° W 21:44:14 32° NNW 21:47:54 17° NE
CENTAUR R/B 2.8 21:39:32 10° WSW 21:46:17 78° NNW 21:48:56 44° ENE
Resurs 01 Rocket 4.5 21:48:42 10° WSW 21:51:00 14° W 21:53:19 10° NW
Cosmos 1553 Rocket 4.0 21:45:37 10° NNW 21:51:34 71° NE 21:51:34 71° NE
Cosmos 2297 Rocket 3.8 21:52:31 10° WNW 21:57:34 31° NNW 22:00:57 18° NE
H-2A R/B 4.4 22:02:31 16° N 22:02:31 16° N 22:03:41 10° N
S3M 4.0 21:56:00 10° NNW 22:01:48 70° NNE 22:01:48 70° NNE
Cosmos 1607 3.9 21:56:37 10° WNW 22:02:59 86° WNW 22:02:59 86° WNW
SPOT 5 3.6 22:04:42 54° W 22:04:42 54° W 22:09:42 10° NNW
Cosmos 1833 Rocket 3.0 22:01:05 10° NW 22:05:56 66° NW 22:05:56 66° NW
Cosmos 1417 Rocket 4.5 22:02:45 10° NNW 22:08:30 77° NNW 22:08:30 77° NNW
COSMOS 2455 3.2 22:08:36 10° WSW 22:13:34 60° W 22:13:34 60° W
ATLAS 3B R/B 2.7 22:13:06 10° WNW 22:20:01 72° NNE 22:20:01 72° NNE
Cosmos 2263 Rocket 3.1 22:15:01 10° WSW 22:26:02 11° NE 22:26:11 10° NE
GEOS 3 Rocket 4.3 22:25:43 52° WNW 22:25:43 52° WNW 22:29:48 10° WNW
NOSS 3-2 (A) 3.8 22:23:36 10° WNW 22:30:23 73° N 22:30:35 72° NNE
H-2A R/B 3.9 22:45:25 25° W 22:45:55 25° W 22:50:25 10° NNW
USA 238 DEB 3.9 22:43:05 10° WNW 22:49:16 71° NW 22:49:16 71° NW
USA 238 3.9 22:43:11 10° WNW 22:49:22 70° NW 22:49:22 70° NW
Cosmos 2082 Rocket 3.4 22:50:58 10° NW 22:54:34 37° WNW 22:54:34 37° WNW
Terra 3.9 23:11:22 23° NW 23:11:22 23° NW 23:13:41 10° NNW
CZ-2C R/B 4.5 23:17:55 37° NW 23:17:55 37° NW 23:21:28 10° NNW
NOSS 3-2 (C) 4.2 23:19:40 10° WNW 23:24:54 56° NW 23:24:54 56° NW
Cosmos 2227 Rocket 3.8 23:24:52 10° NW 23:29:44 30° N 23:29:44 30° N
SL-16 R/B 4.3 23:36:37 22° NE 23:37:16 23° NE 23:41:53 10° NNW
CENTAUR R/B 3.3 23:30:32 10° WNW 23:36:08 58° NW 23:36:08 58° NW
Cosmos 2297 Rocket 3.8 23:38:08 10° NW 23:42:45 30° N 23:42:45 30° N
